Simultaneous Nadir Overpasses (SNOs) Predictions

Prediction of SNOs between METOP-B and NOAA-19 Satellite Orbit:

Table of predicted SNOs for the next 14.0 days since TLE Epoch: 6/21/2014
Index Date (METOP-B) Time (METOP-B) Lat,Lon (METOP-B) SZA (METOP-B ) Date (NOAA-19) Time (NOAA-19) Lat,Lon (NOAA-19) SZA (NOAA-19 ) Distance(km) Time Diff (sec)
1 06/24/2014 01:55:12 74.42, 147.10 50.98 06/24/2014 01:54:02 74.41, 145.32 51.04 53.29 70
2 06/24/2014 02:46:01 -74.03, -46.56 129.38 06/24/2014 02:44:53 -74.04, -46.46 129.37 3.06 68
3 06/24/2014 03:36:41 74.05, 120.83 50.64 06/24/2014 03:35:58 74.04, 120.77 50.64 2.58 43
4 06/24/2014 04:27:23 -74.01, -71.95 129.40 06/24/2014 04:26:56 -74.01, -71.90 129.40 1.57 27
5 06/24/2014 05:18:04 73.98, 95.31 50.58 06/24/2014 05:18:01 74.01, 95.33 50.61 3.23 3
6 06/24/2014 06:08:45 -73.98, -97.35 129.42 06/24/2014 06:08:59 -73.98, -97.34 129.43 0.55 14
7 06/24/2014 06:59:26 73.96, 69.92 50.56 06/24/2014 07:00:04 73.98, 69.88 50.58 2.81 38
8 06/24/2014 07:50:07 -73.96,-122.74 129.44 06/24/2014 07:51:02 -73.95,-122.78 129.46 1.75 55
9 06/24/2014 08:40:52 73.74, 44.05 50.36 06/24/2014 08:42:04 73.81, 44.81 50.39 24.82 72
10 07/04/2014 07:42:46 -74.67,-119.18 128.23 07/04/2014 07:41:39 -74.66,-122.17 128.13 87.86 67
11 07/04/2014 08:33:38 74.09, 46.65 51.24 07/04/2014 08:32:29 74.09, 46.62 51.25 0.98 69
12 07/04/2014 09:24:20 -74.06,-146.09 128.79 07/04/2014 09:23:30 -74.06,-146.07 128.78 0.70 50
13 07/04/2014 10:15:00 74.06, 21.25 51.22 07/04/2014 10:14:32 74.06, 21.18 51.23 2.22 28
14 07/04/2014 11:05:42 -74.04,-171.48 128.80 07/04/2014 11:05:33 -74.04,-171.51 128.80 0.88 9
15 07/04/2014 11:56:22 74.04, -4.15 51.21 07/04/2014 11:56:35 74.04, -4.26 51.20 3.68 13
16 07/04/2014 12:47:04 -74.01, 163.12 128.82 07/04/2014 12:47:36 -74.01, 163.05 128.83 2.39 32
17 07/04/2014 13:37:45 73.97, -29.66 51.15 07/04/2014 13:38:37 73.96, -29.58 51.13 2.51 52
18 07/04/2014 14:28:27 -73.94, 137.61 128.88 07/04/2014 14:29:38 -73.93, 137.73 128.90 3.91 71




NCC Satellite Simultaneous Nadir Overpasses (SNOs) Prediction Service
